CICERO 10 (43690 NORAD) Tracking and Keplerian Element Data

This shows tracking and keplerian element data for the satellite.

Feedback or suggestion? Click here.




ElementValue
Catalog43690
NameCICERO 10
Epoch Orbit2974
Epoch Day145.92111736
Epoch Year2019
RAAN334.1609
Inclination85.0361
Eccentricity0.0013145
Argument of Perigee299.5309
Mean Anonmoly60.462
Mean Motion15.19615563
Decay Rate6.76E-06
L11 43690U 18088A 19145.92111736 .00000676 00000-0 29830-4 0 9992
L22 43690 85.0361 334.1609 0013145 299.5309 60.4620 15.19615563 29746

Live tracking and technical data element details for CICERO 10 (NORAD 43690). CICERO 10 can be tracked NOW for your location showing map with azimuth and elevation plus other details from your city location.

Track the satellite on the map from your city or location and see movement details for azimuth, elevation, latitude, longitude, range, height, and movement on the map or in text.







IsCatalogInMostPopularTable: catalog: 43690, numindb: 119
Update: records affected: 1



GetName: 43690 CICERO 10

Hit Count: updated at: Sun, 26 May 2019 18:57:40 GMT